This demonstration page uses our WeatherBlox Daily Observations layout. Learn more.

Left ArrowRight Arrow

53.62937, 11.41316

Hourly Observations for June 18, 2017

Temp ( °F °C ) Dew Point ( °F °C ) Humidity (%) Winds ( mph kmh ) Pressure ( in mb ) Visibility ( mi km ) Precip ( " mm )
6:20 am 06:20 Cloudy with Mist and Fog 57 14 57 14 100 100 W 5 7 30.24 1024 3 5 N/A
6:50 am 06:50 Cloudy with Mist and Fog 57 14 57 14 100 100 W 5 7 30.24 1024 3 5 N/A
7:20 am 07:20 Cloudy with Mist and Fog 59 15 57 14 94 94 W 6 9 30.27 1025 3 5 N/A
7:50 am 07:50 Cloudy 59 15 57 14 94 94 W 6 9 30.24 1024 4 6 N/A
8:20 am 08:20 Cloudy 59 15 57 14 94 94 W 8 13 30.27 1025 4 6 N/A
8:50 am 08:50 Cloudy 61 16 57 14 88 88 W 7 11 30.27 1025 4 6 N/A
9:20 am 09:20 Cloudy 61 16 57 14 88 88 W 7 11 30.27 1025 4 7 N/A
9:50 am 09:50 Cloudy 63 17 59 15 88 88 W 7 11 30.27 1025 4 7 N/A
10:20 am 10:20 Mostly Cloudy 63 17 59 15 88 88 W 7 11 30.27 1025 6 9 N/A
10:50 am 10:50 Mostly Cloudy 64 18 59 15 83 83 W 8 13 30.27 1025 30 48 N/A
11:20 am 11:20 Mostly Cloudy 66 19 61 16 83 83 W 7 11 30.27 1025 30 48 N/A
11:50 am 11:50 Mostly Cloudy 68 20 61 16 78 78 WSW 7 11 30.27 1025 30 48 N/A
12:20 pm 12:20 Mostly Cloudy 68 20 61 16 78 78 W 7 11 30.27 1025 30 48 N/A
12:50 pm 12:50 Mostly Cloudy 70 21 61 16 73 73 W 7 11 30.27 1025 30 48 N/A
1:20 pm 13:20 Partly Cloudy 72 22 63 17 73 73 W 7 11 30.27 1025 30 48 N/A
1:50 pm 13:50 Partly Cloudy 73 23 63 17 69 69 W 6 9 30.27 1025 30 48 N/A
2:20 pm 14:20 Partly Cloudy 73 23 63 17 69 69 WSW 6 9 30.24 1024 30 48 N/A
2:50 pm 14:50 Partly Cloudy 73 23 63 17 69 69 W 6 9 30.24 1024 30 48 N/A
3:20 pm 15:20 Partly Cloudy 75 24 63 17 65 65 W 7 11 30.24 1024 30 48 N/A
3:50 pm 15:50 Partly Cloudy 75 24 63 17 65 65 W 7 11 30.24 1024 30 48 N/A
4:50 pm 16:50 Partly Cloudy 77 25 63 17 61 61 WSW 8 13 30.24 1024 30 48 N/A
5:20 pm 17:20 Partly Cloudy 77 25 64 18 65 65 W 6 9 30.24 1024 30 48 N/A
5:50 pm 17:50 Partly Cloudy 79 26 64 18 61 61 WNW 5 7 30.24 1024 30 48 N/A
6:20 pm 18:20 Mostly Sunny 77 25 63 17 61 61 VRB 2 4 30.21 1023 30 48 N/A
6:50 pm 18:50 Mostly Sunny 77 25 63 17 61 61 W 3 6 30.21 1023 7 11 N/A
7:20 pm 19:20 Mostly Sunny 75 24 64 18 69 69 WNW 3 6 30.21 1023 30 48 N/A
7:50 pm 19:50 Mostly Sunny 77 25 63 17 61 61 VRB 2 4 30.21 1023 7 11 N/A
8:20 pm 20:20 Mostly Sunny 79 26 66 19 65 65 W 3 6 30.21 1023 7 11 N/A
8:50 pm 20:50 Mostly Sunny 75 24 66 19 74 74 VRB 1 2 30.21 1023 30 48 N/A

Powered by AerisWeather